EW8261 Weather Reports


time (UTC)temp
C
wind
direction
speed
KPH
gust
KPH
rain 1hr
cm
rain 24hr
cm
rain mn
cm
humidity
%
barometer
mb
20260505064517 18 300 0.0 4.8 0.00 0.00 0.00 79 1005.8
20260505063013 18 303 0.0 3.2 0.00 0.00 0.00 79 1006.1
20260505061514 17 146 0.0 8.0 0.00 0.00 0.00 79 1006.3
20260505060008 17 141 0.0 1.6 0.00 0.00 0.00 80 1006.4
20260505054505 16 271 0.0 1.6 0.00 0.00 0.00 81 1006.7
20260505053003 16 52 0.0 0.0 0.00 0.00 0.00 85 1006.7
20260505051600 16 53 0.0 0.0 0.00 0.00 0.00 85 1006.7
20260505041604 17 53 0.0 0.0 0.00 0.00 0.00 81 1007.2
20260505034601 17 15 0.0 0.0 0.00 0.00 0.00 78 1007.3
20260505033101 18 349 0.0 0.0 0.00 0.00 0.00 77 1007.5
20260505031556 18 329 0.0 0.0 0.00 0.00 0.00 74 1007.5
20260505030055 18 319 0.0 0.0 0.00 0.00 0.00 74 1007.3
20260505024554 18 37 0.0 0.0 0.00 0.00 0.00 75 1007.2
20260505023053 18 68 0.0 0.0 0.00 0.00 0.00 78 1006.8
20260505021552 18 68 0.0 0.0 0.00 0.00 0.00 78 1006.8
20260505020052 18 118 0.0 0.0 0.00 0.00 0.00 78 1006.5
20260505014552 18 121 0.0 0.0 0.00 0.00 0.00 77 1006.4
20260505013051 20 283 0.0 0.0 0.00 0.00 0.00 75 1006.4
20260505011551 20 283 0.0 0.0 0.00 0.00 0.00 72 1006.1
20260505010059 21 282 0.0 0.0 0.00 0.00 0.00 69 1006.1
20260505004550 22 282 0.0 0.0 0.00 0.00 0.00 65 1006.3
20260505003048 22 306 0.0 0.0 0.00 0.00 0.00 62 1006.1
20260505001550 23 252 0.0 3.2 0.00 0.00 0.00 60 1006.3
20260505000055 23 261 0.0 6.4 0.00 0.00 0.00 59 1006.3
20260504234550 23 126 0.0 6.4 0.00 0.00 0.00 58 1006.4
20260504233043 24 276 0.0 14.5 0.00 0.00 0.00 57 1006.5
20260504231542 24 288 0.0 9.7 0.00 0.00 0.00 56 1006.7
20260504230041 25 284 1.6 8.0 0.00 0.00 0.00 56 1007.0
20260504224539 25 257 1.6 9.7 0.00 0.00 0.00 53 1007.1
20260504223037 25 258 0.0 8.0 0.00 0.00 0.00 55 1007.1
20260504221539 25 276 3.2 16.1 0.00 0.00 0.00 53 1007.3
20260504220045 25 252 1.6 12.9 0.00 0.00 0.00 54 1007.5
20260504214536 25 259 1.6 12.9 0.00 0.00 0.00 52 1007.5
20260504213044 25 276 4.8 17.7 0.00 0.00 0.00 51 1007.8
20260504211538 25 94 3.2 19.3 0.00 0.00 0.00 51 1008.0
20260504210028 26 283 6.4 20.9 0.00 0.00 0.00 50 1008.2
20260504204536 26 248 1.6 12.9 0.00 0.00 0.00 49 1008.4
20260504203024 26 245 3.2 19.3 0.00 0.00 0.00 50 1008.6
20260504201522 26 327 6.4 16.1 0.00 0.00 0.00 49 1008.8
20260504200021 26 244 4.8 16.1 0.00 0.00 0.00 49 1009.1
20260504194519 26 240 4.8 19.3 0.00 0.00 0.00 49 1009.4
20260504193017 26 264 3.2 17.7 0.00 0.00 0.00 49 1009.7
20260504191513 26 298 3.2 20.9 0.00 0.00 0.00 49 1009.9
20260504190014 26 293 4.8 14.5 0.00 0.00 0.00 50 1010.1
20260504184511 26 288 3.2 14.5 0.00 0.00 0.00 50 1010.1
20260504183008 25 221 3.2 17.7 0.00 0.00 0.00 51 1010.4
20260504181507 25 293 6.4 17.7 0.00 0.00 0.00 50 1010.5
20260504180006 25 265 4.8 17.7 0.00 0.00 0.00 50 1010.6
20260504174503 25 278 4.8 16.1 0.00 0.00 0.00 52 1010.8
20260504173100 25 305 1.6 20.9 0.00 0.00 0.00 53 1011.2
20260504171557 23 257 4.8 25.7 0.00 0.00 0.00 52 1011.2
20260504081558 11 267 0.0 0.0 0.00 0.00 0.00 94 1012.3